[[{"header":{"parameterUnit":"m.s-1","parameterCategory":2,"la1":30.2991,"la2":30.254,"lo1":-89.0895,"lo2":-89.0444,"dy":0.0017,"dx":0.0017,"nx":28,"ny":28,"refTime":"2025-05-30T03:00:00:Z","depth":"0","parameterNumber":2,"parameterNumberName":"U-component_of_CURRENTS"},"data":[0,0,0,0,0,0,0,0,0,0,0,0,0,0,0,0,0,0,0,0,0,0,0,0,0,0,0,0,0,0,0,0,0,0,0,0,0,0,0,0,0,0,0,0,0,0,0,0,0,0,0,0,0,0,0,0,0,0,-0.272,-0.2721,0,-0.2736,-0.2736,-0.2736,-0.2781,-0.2782,-0.2783,-0.2785,-0.2958,-0.2961,-0.2965,0,0,0,0,0,0,0,0,0,0,0,0,0,-0.2644,-0.2646,-0.272,-0.2721,-0.2721,-0.2736,-0.2736,-0.2736,-0.278,-0.2782,-0.2784,-0.2785,-0.2957,-0.2961,-0.2965,0,0,0,0,0,0,0,0,0,0,0,0,0,-0.2667,-0.2646,-0.272,-0.2748,-0.2751,-0.2736,-0.2736,-0.2736,-0.278,-0.2782,-0.2784,-0.2786,-0.2956,-0.2961,-0.2966,-0.2956,0,0,-0.2981,-0.2983,0,0,0,0,0,0,0,0,-0.2665,-0.2669,-0.2744,-0.2747,-0.275,-0.2762,-0.2773,-0.2819,-0.278,-0.2765,-0.2785,-0.2787,-0.2909,-0.2917,-0.2908,-0.2964,-0.2971,-0.2981,-0.2984,-0.2987,-0.2988,0,0,0,0,0,0,0,-0.2664,-0.2668,-0.2722,-0.2744,-0.2748,-0.2732,-0.2738,-0.278,-0.2825,-0.2766,-0.277,-0.2778,-0.2911,-0.2902,-0.2913,-0.2974,-0.2981,-0.2986,-0.2989,-0.2991,-0.2944,-0.294,0,0,0,0,0,0,-0.2673,-0.2667,-0.2722,-0.2723,-0.2717,-0.2732,-0.2739,-0.2753,-0.2821,-0.2833,-0.2777,-0.2781,-0.2893,-0.2907,-0.2919,-0.2924,-0.2987,-0.2991,-0.2994,-0.2948,-0.2943,-0.2938,0,0,0,0,0,0,-0.2671,-0.2678,-0.2721,-0.2698,-0.2703,-0.2733,-0.2747,-0.2752,-0.2755,-0.2828,-0.2843,-0.2777,-0.2895,-0.2912,-0.2915,-0.2932,-0.2994,-0.2998,-0.2953,-0.2946,-0.294,-0.2928,0,0,0,0,0,0,-0.2669,-0.2677,-0.2679,-0.2699,-0.2705,-0.2718,-0.2746,-0.2751,-0.2759,-0.2764,-0.2833,-0.285,-0.2898,-0.2906,-0.292,-0.294,-0.3002,-0.2958,-0.295,-0.2943,-0.2934,-0.2922,-0.2912,0,0,0,0,0,-0.2666,-0.2668,-0.2679,-0.2686,-0.2711,-0.2718,-0.2718,-0.2742,-0.2757,-0.2753,-0.2763,-0.2849,-0.2865,-0.2907,-0.2924,-0.2946,-0.2962,-0.2952,-0.2943,-0.2939,-0.2924,-0.2912,0,0,0,0,0,0,-0.2635,-0.2673,-0.2687,-0.27,-0.271,-0.2728,-0.2724,-0.2737,-0.2738,-0.2744,-0.2805,-0.2821,-0.2827,-0.2854,-0.2898,-0.289,-0.2924,-0.2917,-0.2915,-0.2902,-0.2891,-0.2946,-0.3006,0,0,0,0,0,-0.2628,-0.2641,-0.267,-0.2676,-0.2682,-0.2698,-0.2701,-0.2717,-0.2727,-0.273,-0.2767,-0.2784,-0.2794,-0.2823,-0.2831,-0.2843,-0.2848,-0.2852,-0.2842,-0.2833,-0.2876,-0.2894,-0.2893,-0.2907,-0.2907,-0.2907,0,0,-0.2617,-0.2639,-0.2646,-0.267,-0.2678,-0.2692,-0.2704,-0.2708,-0.2721,-0.2751,-0.276,-0.2754,-0.2777,-0.2776,-0.2783,-0.2815,-0.2797,-0.2821,-0.2815,-0.2864,-0.2885,-0.2885,-0.2885,-0.29,-0.2901,-0.2902,0,0,-0.2602,-0.262,-0.2626,-0.2642,-0.266,-0.2674,-0.2677,-0.2688,-0.2694,-0.269,-0.2697,-0.2684,-0.2717,-0.2727,-0.2741,-0.2667,-0.2729,-0.2662,-0.269,-0.2705,-0.2707,-0.271,-0.2597,-0.259,-0.2674,-0.2673,-0.2673,0,-0.2587,-0.2612,-0.2624,-0.264,-0.266,-0.267,-0.2686,-0.2687,-0.2692,-0.2699,-0.2695,-0.2692,-0.2701,-0.272,-0.268,-0.266,-0.2639,-0.2758,-0.2702,-0.2705,-0.2708,-0.2593,-0.2586,-0.2672,-0.2672,-0.2672,-0.2672,0,-0.2582,-0.2608,-0.2611,-0.2646,-0.2657,-0.2671,-0.2689,-0.2684,-0.2689,-0.2703,-0.2702,-0.268,-0.27,-0.267,-0.2668,-0.268,-0.2638,-0.2683,-0.2765,-0.2709,-0.2585,-0.2578,-0.2669,-0.267,-0.267,-0.2671,0,0,-0.254,-0.2601,-0.2602,-0.2635,-0.267,-0.2682,-0.2692,-0.2716,-0.2751,-0.2725,-0.2768,-0.2723,-0.2727,-0.2735,-0.2717,-0.272,-0.2655,-0.2719,-0.272,-0.2654,-0.2605,-0.2443,-0.2418,-0.2722,-0.2724,-0.2725,-0.247,0,-0.2538,-0.2583,-0.2608,-0.2651,-0.2683,-0.2704,-0.2734,-0.2752,-0.2768,-0.2802,-0.2779,-0.2803,-0.2752,-0.2763,-0.2757,-0.2706,-0.2656,-0.2715,-0.263,-0.2624,-0.2533,-0.2414,-0.2337,-0.2098,-0.2464,-0.2463,-0.2462,0,-0.2518,-0.2568,-0.2613,-0.2697,-0.2711,-0.2737,-0.2797,-0.2825,-0.2868,-0.2882,-0.2899,-0.2902,-0.2871,-0.2856,-0.2748,-0.2797,-0.27,-0.2641,-0.2631,-0.251,-0.2455,-0.223,-0.2072,-0.2079,-0.2451,-0.2452,-0.2453,0,-0.2483,-0.2562,-0.2608,-0.2635,-0.2726,-0.2747,-0.2791,-0.2846,-0.287,-0.2941,-0.2958,-0.2962,-0.2919,-0.2878,-0.2699,-0.2755,-0.256,-0.2623,-0.2357,-0.2339,-0.2273,-0.2248,-0.2173,-0.2552,-0.2552,-0.2553,-0.2554,0,-0.2466,-0.2498,-0.2605,-0.263,-0.2712,-0.2764,-0.283,-0.288,-0.2935,-0.2934,-0.3005,-0.2964,-0.2936,-0.281,-0.2712,-0.2454,-0.2548,-0.2334,-0.2284,-0.2241,-0.2218,-0.2225,-0.2284,-0.2543,-0.2545,-0.2547,-0.2549,0,-0.2404,-0.2464,-0.2545,-0.2662,-0.2694,-0.2757,-0.2834,-0.2836,-0.2936,-0.2932,-0.2943,-0.2925,-0.2748,-0.2643,-0.2489,-0.239,-0.2176,-0.2107,-0.1977,-0.1919,-0.1738,-0.1798,-0.1686,-0.1629,-0.1818,-0.1813,-0.1809,0,-0.2368,-0.2402,-0.256,-0.2578,-0.2624,-0.2709,-0.2707,-0.2818,-0.2798,-0.2848,-0.2791,-0.2684,-0.2513,-0.2217,-0.2056,-0.182,-0.1886,-0.1622,-0.1741,-0.1686,-0.1719,-0.1794,-0.1764,-0.158,-0.1574,-0.157,-0.1566,0,-0.2299,-0.2365,-0.2426,-0.2488,-0.2504,-0.2547,-0.2561,-0.2574,-0.263,-0.2629,-0.2519,-0.2419,-0.2138,-0.1867,-0.1596,-0.1473,-0.1631,-0.1512,-0.1547,-0.1591,-0.1586,-0.1519,-0.1705,-0.1523,-0.1527,-0.153,-0.1533,-0.1534,-0.2223,-0.2261,-0.2307,-0.2354,-0.2365,-0.2326,-0.2305,-0.229,-0.227,-0.2188,-0.2184,-0.195,-0.1789,-0.1413,-0.1277,-0.1112,-0.123,-0.112,-0.1196,-0.1274,-0.125,-0.1262,-0.0992,-0.0993,-0.0994,-0.0995,-0.0996,0,-0.208,-0.2093,-0.2124,-0.2152,-0.2072,-0.2143,-0.2116,-0.2044,-0.1947,-0.1814,-0.169,-0.1431,-0.1227,-0.1101,-0.0956,-0.0869,-0.0901,-0.0859,-0.1019,-0.1004,-0.1073,-0.1097,-0.073,-0.073,-0.073,-0.073,-0.073,-0.073,-0.1984,-0.1935,-0.1962,-0.1818,-0.1813,-0.1672,-0.1636,-0.1585,-0.1484,-0.1205,-0.098,-0.0844,-0.0865,-0.1007,-0.0925,-0.0848,-0.0888,-0.0825,-0.0865,-0.1009,-0.1044,-0.1077,-0.1114,-0.0756,-0.0756,-0.077,-0.077,-0.0771]},{"header":{"parameterUnit":"m.s-1","parameterCategory":2,"la1":30.2991,"la2":30.254,"lo1":-89.0895,"lo2":-89.0444,"dy":0.0017,"dx":0.0017,"nx":28,"ny":28,"refTime":"2025-05-30T03:00:00:Z","depth":"0","parameterNumber":3,"parameterNumberName":"V-component_of_CURRENTS"},"data":[0,0,0,0,0,0,0,0,0,0,0,0,0,0,0,0,0,0,0,0,0,0,0,0,0,0,0,0,0,0,0,0,0,0,0,0,0,0,0,0,0,0,0,0,0,0,0,0,0,0,0,0,0,0,0,0,0,0,-0.0705,-0.0704,0,-0.062,-0.0619,-0.0618,-0.0553,-0.0553,-0.0552,-0.0552,-0.029,-0.0283,-0.0277,0,0,0,0,0,0,0,0,0,0,0,0,0,-0.0706,-0.0707,-0.0705,-0.0704,-0.0704,-0.062,-0.0619,-0.0617,-0.0553,-0.0553,-0.0552,-0.0552,-0.0292,-0.0284,-0.0276,0,0,0,0,0,0,0,0,0,0,0,0,0,-0.067,-0.0707,-0.0705,-0.0663,-0.0659,-0.0621,-0.0619,-0.0617,-0.0553,-0.0553,-0.0552,-0.0552,-0.0295,-0.0285,-0.0275,-0.0224,0,0,-0.0245,-0.024,0,0,0,0,0,0,0,0,-0.0672,-0.0669,-0.067,-0.0666,-0.0661,-0.0599,-0.0523,-0.0478,-0.0553,-0.0591,-0.0552,-0.0551,-0.0379,-0.0362,-0.0346,-0.0212,-0.0201,-0.0244,-0.0238,-0.0233,-0.0231,0,0,0,0,0,0,0,-0.0675,-0.0672,-0.0669,-0.067,-0.0664,-0.0613,-0.0608,-0.0514,-0.0483,-0.0587,-0.0583,-0.0578,-0.0375,-0.0356,-0.0339,-0.0197,-0.0244,-0.0235,-0.0229,-0.0225,-0.0057,-0.0058,0,0,0,0,0,0,-0.0697,-0.0675,-0.0672,-0.0667,-0.0668,-0.0614,-0.0608,-0.0617,-0.0488,-0.047,-0.0579,-0.0575,-0.0373,-0.0351,-0.0329,-0.0311,-0.0234,-0.0224,-0.0218,-0.0055,-0.0057,-0.0059,0,0,0,0,0,0,-0.0698,-0.0698,-0.0675,-0.067,-0.0664,-0.0616,-0.0626,-0.0616,-0.0597,-0.0484,-0.0462,-0.057,-0.0372,-0.0343,-0.0273,-0.0298,-0.022,-0.0211,-0.0054,-0.0056,-0.0058,-0.0241,0,0,0,0,0,0,-0.0698,-0.0699,-0.0708,-0.0672,-0.0665,-0.0659,-0.0626,-0.0615,-0.0596,-0.0591,-0.0469,-0.0444,-0.0369,-0.0289,-0.0263,-0.0283,-0.0203,-0.0052,-0.0055,-0.0057,-0.0233,-0.025,-0.0264,0,0,0,0,0,-0.0699,-0.0715,-0.0709,-0.0708,-0.0681,-0.066,-0.0651,-0.0612,-0.0596,-0.0591,-0.0528,-0.0448,-0.0288,-0.0282,-0.0251,-0.0269,-0.005,-0.0054,-0.0057,-0.0227,-0.0247,-0.0263,0,0,0,0,0,0,-0.0713,-0.0709,-0.0702,-0.0714,-0.0693,-0.065,-0.064,-0.0618,-0.0566,-0.0557,-0.0456,-0.0427,-0.0377,-0.0297,-0.0292,-0.0231,-0.016,-0.0157,-0.0299,-0.0316,-0.0331,-0.0421,-0.0194,0,0,0,0,0,-0.0725,-0.0738,-0.072,-0.0727,-0.0722,-0.0684,-0.0669,-0.0647,-0.06,-0.0578,-0.0501,-0.0424,-0.0368,-0.0323,-0.0249,-0.0203,-0.0099,-0.0198,-0.0214,-0.0227,-0.0281,-0.0163,-0.0173,-0.007,-0.007,-0.007,0,0,-0.0731,-0.0731,-0.0737,-0.0731,-0.071,-0.0724,-0.0673,-0.0658,-0.0674,-0.0552,-0.0536,-0.0462,-0.0367,-0.0334,-0.0304,-0.0269,-0.0185,-0.0231,-0.0244,-0.0291,-0.0168,-0.0177,-0.0186,-0.0072,-0.0072,-0.0072,0,0,-0.0758,-0.0754,-0.0778,-0.0774,-0.0759,-0.0743,-0.0746,-0.0711,-0.0698,-0.0669,-0.0609,-0.0577,-0.0448,-0.0429,-0.0393,-0.0444,-0.0269,-0.0393,-0.0538,-0.0422,-0.043,-0.0436,-0.0248,-0.0236,-0.0401,-0.0402,-0.0402,0,-0.0765,-0.0814,-0.0777,-0.0803,-0.0834,-0.0764,-0.0818,-0.0782,-0.0731,-0.0745,-0.0681,-0.059,-0.0513,-0.052,-0.0564,-0.0483,-0.0352,-0.0477,-0.0443,-0.0447,-0.045,-0.0257,-0.0241,-0.0411,-0.041,-0.0409,-0.0408,0,-0.0818,-0.0862,-0.0875,-0.0907,-0.0921,-0.0949,-0.0926,-0.0921,-0.0893,-0.0868,-0.0852,-0.0756,-0.0716,-0.0683,-0.0646,-0.0652,-0.0524,-0.0472,-0.0403,-0.0472,-0.0262,-0.0242,-0.0424,-0.0421,-0.0418,-0.0416,0,0,-0.0839,-0.0909,-0.0916,-0.0988,-0.1,-0.1028,-0.1057,-0.1093,-0.1105,-0.1043,-0.1054,-0.1028,-0.0973,-0.0937,-0.0861,-0.0797,-0.0698,-0.0672,-0.0661,-0.0497,-0.0367,-0.0319,-0.029,-0.0619,-0.0619,-0.0618,-0.0187,0,-0.0909,-0.1037,-0.1035,-0.1157,-0.1247,-0.1223,-0.1255,-0.1265,-0.122,-0.118,-0.1121,-0.1061,-0.1058,-0.1009,-0.0973,-0.0737,-0.0666,-0.0817,-0.0319,-0.0304,-0.0263,-0.0277,-0.0234,0.0146,-0.0167,-0.0163,-0.0161,0,-0.0971,-0.1079,-0.1243,-0.1362,-0.1388,-0.1431,-0.1508,-0.1511,-0.1442,-0.1384,-0.1348,-0.1223,-0.1153,-0.1097,-0.082,-0.0896,-0.0701,-0.0523,-0.0499,-0.04,-0.0225,0.0153,0.0196,0.0331,-0.0129,-0.0132,-0.0134,0,-0.1079,-0.1213,-0.1381,-0.1425,-0.1528,-0.1598,-0.1627,-0.1607,-0.1556,-0.1488,-0.1372,-0.13,-0.112,-0.0962,-0.0655,-0.0701,-0.0265,-0.0249,-0.0027,-0.0013,0.0137,0.0158,0.0342,-0.0092,-0.0093,-0.0094,-0.0095,0,-0.118,-0.1295,-0.1453,-0.1546,-0.1708,-0.1731,-0.1775,-0.179,-0.1664,-0.154,-0.1477,-0.1289,-0.1071,-0.0787,-0.0613,-0.0235,-0.0217,-0.0066,0.0071,0.0082,0.0092,0.0308,0.0347,-0.0078,-0.0081,-0.0085,-0.0087,0,-0.1257,-0.1345,-0.1559,-0.1736,-0.1765,-0.1896,-0.1826,-0.1762,-0.1694,-0.1502,-0.1447,-0.1173,-0.082,-0.0583,-0.0186,-0.008,0.0334,0.0329,0.0349,0.0471,0.0706,0.0733,0.1067,0.1196,0.0634,0.0637,0.064,0,-0.1301,-0.1427,-0.1699,-0.1754,-0.1829,-0.1921,-0.1865,-0.1809,-0.1678,-0.1391,-0.1251,-0.0891,-0.0595,-0.0035,0.0198,0.0531,0.0595,0.0755,0.0579,0.0702,0.0838,0.0846,0.093,0.0786,0.079,0.0793,0.0795,0,-0.139,-0.1503,-0.1678,-0.1813,-0.184,-0.1835,-0.1772,-0.168,-0.1499,-0.1287,-0.0922,-0.0675,-0.0176,0.0216,0.057,0.0741,0.0846,0.0824,0.096,0.0935,0.0956,0.1155,0.0574,0.0822,0.0819,0.0817,0.0816,0.0815,-0.1423,-0.157,-0.173,-0.1844,-0.1836,-0.1735,-0.1679,-0.1462,-0.1243,-0.0836,-0.0647,-0.0139,0.0188,0.0681,0.0865,0.1183,0.1127,0.1254,0.129,0.1298,0.1329,0.0794,0.1154,0.1154,0.1153,0.1152,0.1152,0,-0.1421,-0.1533,-0.1655,-0.1776,-0.1699,-0.1706,-0.1542,-0.1367,-0.1051,-0.0557,-0.0163,0.045,0.0807,0.11,0.1428,0.1616,0.1652,0.1718,0.1737,0.1811,0.1381,0.1283,0.1675,0.1674,0.1674,0.1674,0.1674,0.1674,-0.141,-0.1516,-0.1606,-0.1573,-0.159,-0.1454,-0.1364,-0.1069,-0.0718,0.0037,0.0609,0.1006,0.128,0.164,0.1957,0.2003,0.2187,0.218,0.2294,0.1955,0.1913,0.1873,0.1788,0.2279,0.2279,0.272,0.2724,0.2727]}],[{"header":{"parameterUnit":"m.s-1","parameterCategory":2,"la1":30.2991,"la2":30.254,"lo1":-89.0895,"lo2":-89.0444,"dy":0.0017,"dx":0.0017,"nx":28,"ny":28,"refTime":"2025-05-30T03:00:00:Z","depth":"2","parameterNumber":2,"parameterNumberName":"U-component_of_CURRENTS"},"data":[0,0,0,0,0,0,0,0,0,0,0,0,0,0,0,0,0,0,0,0,0,0,0,0,0,0,0,0,0,0,0,0,0,0,0,0,0,0,0,0,0,0,0,0,0,0,0,0,0,0,0,0,0,0,0,0,0,0,-0.2497,-0.2497,0,-0.2518,-0.2518,-0.2518,-0.2556,-0.2557,-0.2558,-0.2559,-0.2587,-0.2586,-0.2586,0,0,0,0,0,0,0,0,0,0,0,0,0,-0.2447,-0.2448,-0.2497,-0.2497,-0.2498,-0.2518,-0.2518,-0.2518,-0.2556,-0.2557,-0.2558,-0.2559,-0.2587,-0.2586,-0.2586,0,0,0,0,0,0,0,0,0,0,0,0,0,-0.2466,-0.2448,-0.2497,-0.2521,-0.2524,-0.2518,-0.2518,-0.2518,-0.2556,-0.2557,-0.2559,-0.256,-0.2587,-0.2586,-0.2586,-0.2555,0,0,-0.2585,-0.2585,0,0,0,0,0,0,0,0,-0.2465,-0.2467,-0.2517,-0.2519,-0.2522,-0.2538,-0.2511,-0.2532,-0.2555,-0.2541,-0.2559,-0.2561,-0.2572,-0.2573,-0.257,-0.2557,-0.2558,-0.2585,-0.2585,-0.2585,-0.2585,0,0,0,0,0,0,0,-0.2464,-0.2466,-0.2502,-0.2517,-0.2521,-0.2517,-0.2521,-0.2515,-0.2546,-0.2542,-0.2546,-0.2552,-0.2573,-0.257,-0.2571,-0.2558,-0.2585,-0.2585,-0.2585,-0.2585,-0.2538,-0.2537,0,0,0,0,0,0,-0.2467,-0.2465,-0.2502,-0.2503,-0.25,-0.2517,-0.2522,-0.2529,-0.2546,-0.255,-0.2551,-0.2554,-0.2569,-0.2571,-0.2572,-0.2563,-0.2585,-0.2585,-0.2585,-0.2539,-0.2538,-0.2536,0,0,0,0,0,0,-0.2466,-0.247,-0.2501,-0.2487,-0.2491,-0.2517,-0.2525,-0.2529,-0.2537,-0.2553,-0.2557,-0.2556,-0.2571,-0.2572,-0.2569,-0.2564,-0.2585,-0.2584,-0.254,-0.2538,-0.2537,-0.2529,0,0,0,0,0,0,-0.2464,-0.2469,-0.2471,-0.2487,-0.2492,-0.2503,-0.2524,-0.2529,-0.2539,-0.2544,-0.2558,-0.2562,-0.2572,-0.2569,-0.2569,-0.2564,-0.2584,-0.2542,-0.2539,-0.2537,-0.2531,-0.2528,-0.2525,0,0,0,0,0,-0.2462,-0.2463,-0.2471,-0.2475,-0.2495,-0.2503,-0.2505,-0.2526,-0.2538,-0.2538,-0.2546,-0.2562,-0.2556,-0.2568,-0.2568,-0.2563,-0.2543,-0.254,-0.2538,-0.2532,-0.2528,-0.2525,0,0,0,0,0,0,-0.2442,-0.2467,-0.2476,-0.2484,-0.2495,-0.2511,-0.2512,-0.2524,-0.2529,-0.2534,-0.2549,-0.2552,-0.2543,-0.2548,-0.2561,-0.254,-0.2551,-0.2548,-0.2547,-0.2543,-0.254,-0.2552,-0.2584,0,0,0,0,0,-0.2437,-0.2444,-0.2465,-0.247,-0.2475,-0.2491,-0.2496,-0.2511,-0.252,-0.2524,-0.2532,-0.2534,-0.2528,-0.2534,-0.2526,-0.2518,-0.2508,-0.2512,-0.2509,-0.2506,-0.2513,-0.2498,-0.2495,-0.2528,-0.2528,-0.2528,0,0,-0.243,-0.2444,-0.2448,-0.2465,-0.2474,-0.2484,-0.2497,-0.2506,-0.2514,-0.2524,-0.2528,-0.2519,-0.252,-0.251,-0.2507,-0.252,-0.2483,-0.2503,-0.2501,-0.251,-0.2495,-0.2492,-0.2489,-0.2527,-0.2527,-0.2527,0,0,-0.2421,-0.2431,-0.2437,-0.2448,-0.2465,-0.2474,-0.2478,-0.2492,-0.2499,-0.2499,-0.2502,-0.2491,-0.2491,-0.2487,-0.2487,-0.2458,-0.2461,-0.2455,-0.2461,-0.2445,-0.2443,-0.2441,-0.2393,-0.2387,-0.2463,-0.2463,-0.2463,0,-0.2412,-0.2422,-0.2437,-0.2448,-0.2456,-0.2472,-0.2479,-0.2485,-0.2495,-0.2499,-0.2502,-0.2487,-0.248,-0.2474,-0.2462,-0.2453,-0.2438,-0.2479,-0.2443,-0.2441,-0.244,-0.2391,-0.2384,-0.2462,-0.2462,-0.2462,-0.2462,0,-0.241,-0.2421,-0.2423,-0.2444,-0.2453,-0.2458,-0.2476,-0.2481,-0.2488,-0.2496,-0.2487,-0.2472,-0.2472,-0.2456,-0.2453,-0.2434,-0.2422,-0.2436,-0.2459,-0.2436,-0.2385,-0.2379,-0.2461,-0.2461,-0.2461,-0.2462,0,0,-0.2381,-0.2415,-0.2415,-0.2426,-0.2451,-0.2457,-0.2471,-0.2484,-0.2501,-0.2495,-0.2504,-0.2475,-0.2472,-0.2469,-0.2457,-0.2439,-0.239,-0.2435,-0.2434,-0.2396,-0.2334,-0.2213,-0.2194,-0.2407,-0.2407,-0.2406,-0.2293,0,-0.2371,-0.2387,-0.2408,-0.2422,-0.2429,-0.2456,-0.2473,-0.249,-0.25,-0.2512,-0.2497,-0.2497,-0.2478,-0.2477,-0.2454,-0.2411,-0.2377,-0.2418,-0.2354,-0.2351,-0.2255,-0.2185,-0.2046,-0.1924,-0.2286,-0.2285,-0.2284,0,-0.2354,-0.2369,-0.2377,-0.2417,-0.2424,-0.2436,-0.2467,-0.2486,-0.2512,-0.2527,-0.253,-0.2527,-0.2494,-0.2487,-0.2405,-0.2436,-0.2382,-0.2344,-0.2339,-0.2231,-0.2219,-0.201,-0.1898,-0.2273,-0.2274,-0.2275,-0.2275,0,-0.2309,-0.2345,-0.2348,-0.2359,-0.2406,-0.2417,-0.2443,-0.248,-0.2504,-0.2533,-0.2543,-0.253,-0.2498,-0.2459,-0.2369,-0.2395,-0.2268,-0.2298,-0.2133,-0.2124,-0.1993,-0.1972,-0.2236,-0.2236,-0.2237,-0.2237,-0.2237,0,-0.228,-0.2284,-0.2328,-0.2328,-0.235,-0.2391,-0.242,-0.2455,-0.25,-0.25,-0.254,-0.2515,-0.249,-0.2418,-0.2365,-0.2201,-0.226,-0.2108,-0.2082,-0.198,-0.196,-0.2269,-0.2275,-0.2233,-0.2234,-0.2235,-0.2235,0,-0.2224,-0.225,-0.2262,-0.2309,-0.2325,-0.2338,-0.2409,-0.2424,-0.2481,-0.2477,-0.2485,-0.2483,-0.2373,-0.2324,-0.2224,-0.2152,-0.2049,-0.1981,-0.184,-0.1798,-0.1918,-0.1924,-0.1789,-0.1783,-0.1779,-0.1775,-0.1772,0,-0.2193,-0.2191,-0.2239,-0.2236,-0.2251,-0.2289,-0.2307,-0.2398,-0.2403,-0.2427,-0.2393,-0.2328,-0.2214,-0.2031,-0.191,-0.177,-0.1887,-0.1578,-0.1599,-0.1881,-0.187,-0.1883,-0.1895,-0.1412,-0.1406,-0.1402,-0.1398,0,-0.2126,-0.2144,-0.2143,-0.2155,-0.2164,-0.2194,-0.2217,-0.2232,-0.2292,-0.2277,-0.2191,-0.2113,-0.193,-0.17,-0.1543,-0.1463,-0.1597,-0.1472,-0.1795,-0.1549,-0.1517,-0.151,-0.1536,-0.1355,-0.136,-0.1363,-0.1365,-0.1367,-0.2057,-0.2044,-0.204,-0.2037,-0.2055,-0.2044,-0.2005,-0.2021,-0.1998,-0.1899,-0.1939,-0.1747,-0.167,-0.1323,-0.121,-0.113,-0.1247,-0.1211,-0.123,-0.1253,-0.1231,-0.1193,-0.0965,-0.0967,-0.0969,-0.097,-0.0972,0,-0.1946,-0.1928,-0.192,-0.1891,-0.1848,-0.1911,-0.1886,-0.1793,-0.1674,-0.1625,-0.1514,-0.1278,-0.11,-0.1045,-0.0835,-0.0772,-0.0811,-0.0755,-0.0829,-0.0869,-0.0906,-0.0872,-0.0508,-0.0506,-0.0505,-0.0504,0,0,-0.1874,-0.181,-0.1801,-0.1674,-0.1653,-0.1532,-0.1478,-0.1354,-0.1273,-0.1103,-0.1001,-0.1024,-0.1002,-0.0769,-0.0696,-0.057,-0.0722,-0.0531,-0.09,-0.1027,-0.1063,-0.1155,-0.1145,0,0,0,0,0]},{"header":{"parameterUnit":"m.s-1","parameterCategory":2,"la1":30.2991,"la2":30.254,"lo1":-89.0895,"lo2":-89.0444,"dy":0.0017,"dx":0.0017,"nx":28,"ny":28,"refTime":"2025-05-30T03:00:00:Z","depth":"2","parameterNumber":3,"parameterNumberName":"V-component_of_CURRENTS"},"data":[0,0,0,0,0,0,0,0,0,0,0,0,0,0,0,0,0,0,0,0,0,0,0,0,0,0,0,0,0,0,0,0,0,0,0,0,0,0,0,0,0,0,0,0,0,0,0,0,0,0,0,0,0,0,0,0,0,0,-0.0616,-0.0615,0,-0.0544,-0.0543,-0.0542,-0.0488,-0.0488,-0.0487,-0.0487,-0.0288,-0.0283,-0.0278,0,0,0,0,0,0,0,0,0,0,0,0,0,-0.061,-0.0611,-0.0616,-0.0615,-0.0614,-0.0544,-0.0542,-0.0541,-0.0488,-0.0488,-0.0487,-0.0487,-0.029,-0.0284,-0.0278,0,0,0,0,0,0,0,0,0,0,0,0,0,-0.0581,-0.0612,-0.0616,-0.0581,-0.0577,-0.0544,-0.0542,-0.0541,-0.0488,-0.0488,-0.0487,-0.0487,-0.0292,-0.0284,-0.0277,-0.0237,0,0,-0.0253,-0.025,0,0,0,0,0,0,0,0,-0.0583,-0.0581,-0.0587,-0.0584,-0.0579,-0.0527,-0.0468,-0.0434,-0.0488,-0.0519,-0.0487,-0.0487,-0.0358,-0.0345,-0.033,-0.0228,-0.0219,-0.0253,-0.0248,-0.0245,-0.0243,0,0,0,0,0,0,0,-0.0585,-0.0583,-0.0585,-0.0586,-0.0582,-0.0536,-0.0532,-0.0461,-0.0437,-0.0516,-0.0513,-0.0509,-0.0354,-0.0338,-0.0325,-0.0216,-0.0253,-0.0246,-0.0241,-0.0239,-0.0069,-0.0069,0,0,0,0,0,0,-0.0605,-0.0586,-0.0587,-0.0583,-0.0583,-0.0537,-0.0532,-0.0542,-0.0441,-0.0427,-0.051,-0.0507,-0.0351,-0.0334,-0.0317,-0.0265,-0.0245,-0.0238,-0.0233,-0.0069,-0.0069,-0.0069,0,0,0,0,0,0,-0.0605,-0.0606,-0.059,-0.0583,-0.0579,-0.0539,-0.0549,-0.0541,-0.0525,-0.0437,-0.042,-0.0503,-0.035,-0.0328,-0.0264,-0.0257,-0.0234,-0.0227,-0.0069,-0.0069,-0.0069,-0.016,0,0,0,0,0,0,-0.0606,-0.0607,-0.0616,-0.0586,-0.058,-0.0576,-0.0549,-0.054,-0.0524,-0.052,-0.0426,-0.0407,-0.0348,-0.0276,-0.0257,-0.0246,-0.0221,-0.0068,-0.0069,-0.0069,-0.0157,-0.0163,-0.0168,0,0,0,0,0,-0.0606,-0.0622,-0.0617,-0.0617,-0.0596,-0.0577,-0.0569,-0.0537,-0.0525,-0.0521,-0.0463,-0.041,-0.0263,-0.0271,-0.0247,-0.0234,-0.0068,-0.0069,-0.0069,-0.0154,-0.0162,-0.0168,0,0,0,0,0,0,-0.0621,-0.0618,-0.0612,-0.0626,-0.0606,-0.0569,-0.0562,-0.0543,-0.0496,-0.0489,-0.0408,-0.0385,-0.0331,-0.027,-0.0281,-0.0187,-0.0157,-0.0153,-0.023,-0.0236,-0.0242,-0.0235,-0.0215,0,0,0,0,0,-0.0632,-0.0645,-0.0628,-0.0638,-0.0633,-0.06,-0.0587,-0.0568,-0.0526,-0.0506,-0.0445,-0.0374,-0.0313,-0.0268,-0.0208,-0.0148,-0.0091,-0.0125,-0.0131,-0.0137,-0.0116,-0.0047,-0.0044,-0.0069,-0.0069,-0.0069,0,0,-0.064,-0.064,-0.0646,-0.0642,-0.0624,-0.0619,-0.0591,-0.0579,-0.0564,-0.0488,-0.0447,-0.0395,-0.0306,-0.0252,-0.0219,-0.0196,-0.0104,-0.0137,-0.0142,-0.0117,-0.0047,-0.0044,-0.0042,-0.0069,-0.0069,-0.0069,0,0,-0.0661,-0.0664,-0.0681,-0.0672,-0.0657,-0.0634,-0.0636,-0.0605,-0.058,-0.0541,-0.0487,-0.0428,-0.0338,-0.027,-0.0223,-0.0218,-0.0148,-0.0208,-0.0213,-0.0148,-0.0146,-0.0142,-0.0088,-0.0079,-0.0198,-0.0199,-0.0199,0,-0.0669,-0.0691,-0.0679,-0.0689,-0.0677,-0.0647,-0.0648,-0.0622,-0.0572,-0.0539,-0.0538,-0.0407,-0.034,-0.0251,-0.0256,-0.0227,-0.0189,-0.0199,-0.0156,-0.0152,-0.0147,-0.0092,-0.0081,-0.0203,-0.0202,-0.0202,-0.0202,0,-0.0701,-0.0714,-0.0721,-0.0725,-0.0708,-0.0707,-0.0672,-0.0648,-0.0619,-0.0583,-0.0511,-0.0435,-0.0351,-0.0329,-0.0287,-0.0216,-0.0202,-0.0186,-0.0143,-0.015,-0.0092,-0.0079,-0.0209,-0.0208,-0.0206,-0.0205,0,0,-0.0726,-0.0743,-0.0744,-0.0744,-0.0726,-0.0713,-0.0685,-0.0639,-0.0615,-0.0565,-0.0519,-0.0423,-0.039,-0.0334,-0.028,-0.0215,-0.0161,-0.0191,-0.0186,-0.0145,-0.0029,-0.0008,0.0009,-0.015,-0.0147,-0.0146,-0.0011,0,-0.0751,-0.0778,-0.0772,-0.0774,-0.0778,-0.0735,-0.0715,-0.0665,-0.062,-0.0574,-0.0483,-0.0435,-0.0391,-0.0367,-0.0293,-0.0197,-0.0127,-0.0199,-0.002,-0.0014,-0.0,0.0025,0.0013,0.0133,0.0002,0.0005,0.0006,0,-0.0786,-0.0792,-0.0811,-0.0794,-0.0791,-0.0786,-0.0728,-0.0707,-0.063,-0.0601,-0.0527,-0.0472,-0.0365,-0.0348,-0.0162,-0.0218,-0.0124,-0.0048,-0.0041,0.0029,0.0033,0.0126,0.0163,0.0029,0.0027,0.0025,0.0024,0,-0.0809,-0.0815,-0.0827,-0.0825,-0.0807,-0.0792,-0.0772,-0.071,-0.0698,-0.0622,-0.0605,-0.048,-0.042,-0.029,-0.0134,-0.0153,0.0064,0.0059,0.0176,0.0177,0.0234,0.0237,0.0201,0.02,0.02,0.02,0.0199,0,-0.0844,-0.085,-0.0841,-0.0853,-0.0855,-0.0821,-0.0826,-0.0784,-0.0746,-0.072,-0.063,-0.0573,-0.0404,-0.0264,-0.0133,0.0067,0.0071,0.0196,0.0225,0.0199,0.0197,0.0164,0.0158,0.0205,0.0204,0.0203,0.0202,0,-0.0886,-0.0885,-0.0896,-0.088,-0.0881,-0.088,-0.0892,-0.0898,-0.0843,-0.0804,-0.0788,-0.0635,-0.0443,-0.0265,-0.0034,0.0075,0.0252,0.0324,0.0276,0.0297,0.032,0.0308,0.0466,0.0468,0.047,0.0471,0.0473,0,-0.0914,-0.0932,-0.0934,-0.0956,-0.0959,-0.0971,-0.0998,-0.0962,-0.0955,-0.0826,-0.0798,-0.0612,-0.0458,-0.0125,0.0099,0.0339,0.0332,0.0457,0.0433,0.0341,0.0353,0.0337,0.0323,0.0465,0.0466,0.0467,0.0468,0,-0.0966,-0.0972,-0.0984,-0.1033,-0.1063,-0.1092,-0.1098,-0.1099,-0.1025,-0.0955,-0.079,-0.0654,-0.0329,-0.0052,0.0238,0.0374,0.041,0.0483,0.0432,0.0387,0.0348,0.0356,0.0341,0.0476,0.0475,0.0474,0.0474,0.0474,-0.1003,-0.103,-0.1063,-0.1101,-0.1144,-0.1166,-0.1163,-0.114,-0.1084,-0.092,-0.0784,-0.0541,-0.0298,0.0135,0.034,0.0526,0.0516,0.0563,0.0557,0.0552,0.0515,0.048,0.0626,0.0626,0.0626,0.0626,0.0626,0,-0.1043,-0.1082,-0.1135,-0.1169,-0.1216,-0.122,-0.1202,-0.1151,-0.1043,-0.0897,-0.0715,-0.0385,-0.0095,0.0153,0.0457,0.0623,0.0602,0.0647,0.0587,0.0579,0.0571,0.0533,0.065,0.0651,0.0651,0.0651,0,0,-0.1067,-0.113,-0.1154,-0.1217,-0.1243,-0.1242,-0.1206,-0.1096,-0.0965,-0.077,-0.0594,-0.039,-0.008,0.0139,0.0354,0.0512,0.0495,0.0524,0.049,0.0385,0.0375,0.0513,0.0444,0,0,0,0,0]}],[{"header":{"parameterUnit":"m.s-1","parameterCategory":2,"la1":30.2991,"la2":30.254,"lo1":-89.0895,"lo2":-89.0444,"dy":0.0017,"dx":0.0017,"nx":28,"ny":28,"refTime":"2025-05-30T03:00:00:Z","depth":"4","parameterNumber":2,"parameterNumberName":"U-component_of_CURRENTS"},"data":[0,0,0,0,0,0,0,0,0,0,0,0,0,0,0,0,0,0,0,0,0,0,0,0,0,0,0,0,0,0,0,0,0,0,0,0,0,0,0,0,0,0,0,0,0,0,0,0,0,0,0,0,0,0,0,0,0,0,-0.1782,-0.1783,0,-0.1841,-0.1841,-0.1842,-0.1921,-0.1922,-0.1924,-0.1925,-0.1982,-0.1982,-0.1982,0,0,0,0,0,0,0,0,0,0,0,0,0,-0.1726,-0.1726,-0.1782,-0.1783,-0.1784,-0.184,-0.1841,-0.1842,-0.1921,-0.1922,-0.1924,-0.1926,-0.1982,-0.1982,-0.1982,0,0,0,0,0,0,0,0,0,0,0,0,0,-0.1763,-0.1726,-0.1782,-0.183,-0.1835,-0.184,-0.1841,-0.1842,-0.192,-0.1922,-0.1924,-0.1926,-0.1982,-0.1982,-0.1982,-0.1943,0,0,-0.1983,-0.1983,0,0,0,0,0,0,0,0,-0.1761,-0.1765,-0.1822,-0.1827,-0.1833,-0.1876,-0.1842,-0.1876,-0.192,-0.1887,-0.1925,-0.1927,-0.1945,-0.1949,-0.1954,-0.1945,-0.1948,-0.1983,-0.1983,-0.1984,-0.1984,0,0,0,0,0,0,0,-0.1758,-0.1763,-0.1805,-0.1823,-0.1829,-0.1845,-0.1852,-0.1849,-0.1903,-0.189,-0.1896,-0.1903,-0.1948,-0.1953,-0.1956,-0.1949,-0.1983,-0.1984,-0.1984,-0.1984,-0.2018,-0.2018,0,0,0,0,0,0,-0.1751,-0.176,-0.1803,-0.1806,-0.1802,-0.1844,-0.1853,-0.1859,-0.1903,-0.1912,-0.1901,-0.1907,-0.1952,-0.1955,-0.1958,-0.2,-0.1984,-0.1984,-0.1984,-0.2017,-0.2018,-0.2019,0,0,0,0,0,0,-0.1749,-0.1754,-0.18,-0.1785,-0.1793,-0.1843,-0.185,-0.186,-0.1901,-0.1912,-0.1921,-0.1938,-0.1954,-0.1958,-0.1994,-0.2,-0.1984,-0.1984,-0.2016,-0.2017,-0.2018,-0.2029,0,0,0,0,0,0,-0.1747,-0.1753,-0.1769,-0.1785,-0.1793,-0.1825,-0.1848,-0.1859,-0.1901,-0.1909,-0.1945,-0.1951,-0.1956,-0.1993,-0.1994,-0.2,-0.1985,-0.2015,-0.2017,-0.2018,-0.2027,-0.203,-0.2032,0,0,0,0,0,-0.1745,-0.1756,-0.177,-0.1776,-0.1809,-0.1825,-0.1832,-0.1873,-0.1901,-0.1919,-0.1953,-0.1952,-0.2002,-0.1994,-0.1995,-0.2001,-0.2015,-0.2016,-0.2018,-0.2026,-0.2029,-0.2032,0,0,0,0,0,0,-0.1744,-0.1765,-0.1781,-0.18,-0.1821,-0.184,-0.1864,-0.1886,-0.1926,-0.1946,-0.196,-0.1967,-0.1997,-0.2,-0.1991,-0.2016,-0.2007,-0.2009,-0.2014,-0.2017,-0.2019,-0.2011,-0.1985,0,0,0,0,0,-0.1747,-0.1764,-0.1782,-0.1802,-0.1813,-0.1842,-0.186,-0.1887,-0.1915,-0.1937,-0.1961,-0.1985,-0.1995,-0.2011,-0.2019,-0.2032,-0.2014,-0.2038,-0.204,-0.2042,-0.2037,-0.2024,-0.2024,-0.2024,-0.2024,-0.2024,0,0,-0.1754,-0.1767,-0.178,-0.1803,-0.1825,-0.1843,-0.186,-0.1894,-0.1917,-0.1932,-0.1982,-0.1993,-0.2001,-0.202,-0.2033,-0.203,-0.2031,-0.2044,-0.2045,-0.204,-0.2025,-0.2025,-0.2025,-0.2025,-0.2025,-0.2025,0,0,-0.1763,-0.1786,-0.1802,-0.1819,-0.1852,-0.1864,-0.188,-0.1912,-0.1941,-0.1976,-0.1991,-0.2012,-0.2038,-0.204,-0.2043,-0.2061,-0.2041,-0.2069,-0.2077,-0.2064,-0.2063,-0.2062,-0.2028,-0.2024,-0.2074,-0.2074,-0.2074,0,-0.1775,-0.1791,-0.181,-0.1828,-0.1845,-0.1877,-0.1896,-0.1919,-0.1964,-0.1979,-0.2001,-0.2034,-0.2042,-0.2049,-0.206,-0.2064,-0.205,-0.2064,-0.2065,-0.2064,-0.2063,-0.2028,-0.2024,-0.2074,-0.2074,-0.2074,-0.2074,0,-0.1785,-0.1812,-0.1822,-0.1853,-0.1874,-0.1896,-0.1923,-0.1954,-0.199,-0.2007,-0.2038,-0.205,-0.2067,-0.2071,-0.2073,-0.207,-0.2058,-0.2065,-0.2054,-0.2063,-0.2026,-0.2021,-0.2075,-0.2075,-0.2075,-0.2075,0,0,-0.1771,-0.1821,-0.1828,-0.1848,-0.189,-0.1903,-0.1941,-0.1969,-0.1997,-0.2033,-0.2056,-0.207,-0.2078,-0.2082,-0.2082,-0.2074,-0.205,-0.2071,-0.207,-0.2028,-0.2007,-0.1865,-0.1845,-0.2061,-0.2061,-0.206,-0.1979,0,-0.1775,-0.1809,-0.1834,-0.1872,-0.1888,-0.1926,-0.1956,-0.199,-0.2022,-0.2052,-0.206,-0.2085,-0.2081,-0.2095,-0.2083,-0.2064,-0.204,-0.207,-0.2011,-0.2008,-0.1874,-0.1836,-0.2059,-0.1975,-0.1974,-0.1973,-0.1972,0,-0.1766,-0.1791,-0.1826,-0.1878,-0.189,-0.1921,-0.1968,-0.1999,-0.2039,-0.2068,-0.2087,-0.21,-0.2093,-0.2095,-0.2048,-0.2071,-0.2035,-0.2015,-0.2011,-0.187,-0.1856,-0.1967,-0.1963,-0.1964,-0.1965,-0.1965,-0.1966,0,-0.1724,-0.1782,-0.181,-0.1827,-0.1889,-0.1917,-0.1953,-0.2003,-0.2032,-0.2076,-0.2097,-0.2101,-0.2096,-0.207,-0.202,-0.2042,-0.1955,-0.1981,-0.1811,-0.1801,-0.1953,-0.1954,-0.1932,-0.1933,-0.1933,-0.1933,-0.1933,0,-0.169,-0.1719,-0.1799,-0.1809,-0.1854,-0.1902,-0.195,-0.199,-0.2041,-0.2045,-0.2097,-0.2079,-0.2091,-0.2046,-0.2011,-0.1871,-0.1941,-0.1786,-0.1762,-0.1958,-0.1962,-0.1948,-0.1951,-0.193,-0.1931,-0.1931,-0.1932,0,-0.1632,-0.1683,-0.1726,-0.1804,-0.1833,-0.1864,-0.1952,-0.1967,-0.2033,-0.2036,-0.2049,-0.2061,-0.198,-0.1963,-0.1897,-0.1827,-0.1741,-0.1676,-0.1861,-0.1853,-0.1601,-0.1606,-0.1478,-0.1472,-0.1467,-0.1463,-0.1459,0,-0.1599,-0.1615,-0.1717,-0.1736,-0.1774,-0.1835,-0.1861,-0.1952,-0.1954,-0.1987,-0.1955,-0.192,-0.1899,-0.1675,-0.1693,-0.1594,-0.1577,-0.1531,-0.1582,-0.156,-0.1551,-0.1564,-0.1575,-0.1451,-0.145,-0.1449,-0.1447,0,-0.153,-0.1585,-0.161,-0.1663,-0.17,-0.1741,-0.1779,-0.1777,-0.1831,-0.192,-0.1791,-0.1724,-0.1616,-0.1546,-0.1468,-0.1413,-0.1568,-0.1479,-0.1491,-0.1538,-0.1527,-0.1525,-0.1542,-0.143,-0.1433,-0.1434,-0.1435,0,-0.1478,-0.1485,-0.1526,-0.155,-0.1604,-0.159,-0.1643,-0.1606,-0.1625,-0.1659,-0.1602,-0.1557,-0.1574,-0.1447,-0.1383,-0.1306,-0.1295,-0.1267,-0.129,-0.1309,-0.1292,-0.1256,-0.1027,0,0,0,0,0,-0.1411,-0.1386,-0.1402,-0.1407,-0.1456,-0.1479,-0.1546,-0.1591,-0.1654,-0.1509,-0.155,-0.1437,-0.1311,-0.1304,-0.1184,-0.1322,-0.1318,-0.1181,-0.1305,-0.1334,-0.1354,-0.1351,0,0,0,0,0,0,-0.1355,-0.1365,-0.1352,-0.1275,-0.1248,-0.1276,-0.1311,-0.1357,-0.1289,-0.1355,-0.1287,-0.1341,-0.1241,-0.1329,-0.1144,-0.1143,-0.119,-0.1178,-0.1174,-0.1323,-0.1341,-0.1357,-0.136,0,0,0,0,0]},{"header":{"parameterUnit":"m.s-1","parameterCategory":2,"la1":30.2991,"la2":30.254,"lo1":-89.0895,"lo2":-89.0444,"dy":0.0017,"dx":0.0017,"nx":28,"ny":28,"refTime":"2025-05-30T03:00:00:Z","depth":"4","parameterNumber":3,"parameterNumberName":"V-component_of_CURRENTS"},"data":[0,0,0,0,0,0,0,0,0,0,0,0,0,0,0,0,0,0,0,0,0,0,0,0,0,0,0,0,0,0,0,0,0,0,0,0,0,0,0,0,0,0,0,0,0,0,0,0,0,0,0,0,0,0,0,0,0,0,-0.0437,-0.0437,0,-0.0399,-0.0398,-0.0397,-0.0372,-0.0372,-0.0372,-0.0372,-0.0245,-0.0242,-0.0238,0,0,0,0,0,0,0,0,0,0,0,0,0,-0.0416,-0.0417,-0.0437,-0.0437,-0.0437,-0.0399,-0.0398,-0.0397,-0.0372,-0.0372,-0.0372,-0.0372,-0.0246,-0.0242,-0.0238,0,0,0,0,0,0,0,0,0,0,0,0,0,-0.0405,-0.0418,-0.0437,-0.0421,-0.0419,-0.0399,-0.0398,-0.0397,-0.0372,-0.0372,-0.0372,-0.0372,-0.0247,-0.0242,-0.0237,-0.0204,0,0,-0.0222,-0.0219,0,0,0,0,0,0,0,0,-0.0405,-0.0405,-0.0424,-0.0422,-0.042,-0.0392,-0.0344,-0.0329,-0.0372,-0.0388,-0.0372,-0.0372,-0.0287,-0.0279,-0.027,-0.0198,-0.0193,-0.0221,-0.0218,-0.0216,-0.0214,0,0,0,0,0,0,0,-0.0406,-0.0406,-0.042,-0.0424,-0.0421,-0.0391,-0.039,-0.0341,-0.0334,-0.0386,-0.0385,-0.0384,-0.0285,-0.0275,-0.0266,-0.0191,-0.0221,-0.0217,-0.0214,-0.0212,-0.007,-0.0069,0,0,0,0,0,0,-0.0419,-0.0408,-0.0421,-0.0419,-0.0415,-0.0392,-0.039,-0.0399,-0.0337,-0.0329,-0.0384,-0.0383,-0.0284,-0.0272,-0.0262,-0.0212,-0.0216,-0.0211,-0.0208,-0.007,-0.007,-0.0069,0,0,0,0,0,0,-0.0419,-0.0421,-0.0423,-0.0413,-0.0411,-0.0393,-0.0403,-0.0399,-0.0396,-0.0336,-0.0326,-0.0387,-0.0283,-0.0269,-0.0224,-0.0207,-0.0209,-0.0204,-0.0071,-0.007,-0.0069,-0.0117,0,0,0,0,0,0,-0.0419,-0.0422,-0.0434,-0.0415,-0.0413,-0.0418,-0.0403,-0.0398,-0.0396,-0.0394,-0.0335,-0.0323,-0.0282,-0.0233,-0.0219,-0.02,-0.02,-0.0072,-0.0071,-0.0069,-0.0116,-0.0118,-0.0119,0,0,0,0,0,-0.0419,-0.0435,-0.0435,-0.0436,-0.043,-0.0418,-0.0414,-0.0399,-0.0396,-0.0396,-0.0356,-0.0325,-0.0214,-0.0228,-0.0213,-0.0192,-0.0073,-0.0071,-0.007,-0.0116,-0.0118,-0.0119,0,0,0,0,0,0,-0.0431,-0.0434,-0.0433,-0.045,-0.0439,-0.0415,-0.0417,-0.0406,-0.0377,-0.0376,-0.032,-0.0305,-0.0261,-0.022,-0.0236,-0.0146,-0.0136,-0.0131,-0.0176,-0.0177,-0.0179,-0.0164,-0.0196,0,0,0,0,0,-0.0441,-0.0456,-0.0447,-0.046,-0.0459,-0.044,-0.0435,-0.0425,-0.0398,-0.0387,-0.0346,-0.0294,-0.024,-0.0207,-0.0162,-0.0112,-0.0081,-0.0085,-0.0087,-0.0088,-0.0065,-0.0015,-0.0011,-0.0064,-0.0064,-0.0064,0,0,-0.045,-0.0454,-0.0462,-0.0464,-0.0456,-0.0445,-0.0437,-0.0436,-0.0415,-0.0374,-0.0338,-0.0304,-0.0232,-0.0181,-0.0155,-0.0143,-0.0064,-0.0086,-0.0088,-0.0063,-0.0013,-0.0008,-0.0004,-0.0063,-0.0063,-0.0063,0,0,-0.0466,-0.0479,-0.0492,-0.0484,-0.048,-0.0462,-0.0465,-0.0447,-0.0429,-0.0397,-0.0356,-0.0308,-0.0242,-0.0176,-0.0134,-0.011,-0.0082,-0.0105,-0.0087,-0.004,-0.0036,-0.0031,-0.0022,-0.0016,-0.0095,-0.0096,-0.0096,0,-0.0475,-0.0486,-0.0491,-0.0493,-0.048,-0.0471,-0.0461,-0.044,-0.0407,-0.0379,-0.0391,-0.0279,-0.0228,-0.0132,-0.0125,-0.0109,-0.01,-0.0092,-0.0043,-0.0038,-0.0032,-0.0023,-0.0016,-0.0098,-0.0097,-0.0097,-0.0097,0,-0.0489,-0.0496,-0.0502,-0.0496,-0.0484,-0.048,-0.045,-0.0433,-0.0418,-0.0387,-0.0322,-0.0264,-0.0191,-0.017,-0.0136,-0.0061,-0.0077,-0.0064,-0.0045,-0.003,-0.0022,-0.0014,-0.0101,-0.01,-0.0099,-0.0099,0,0,-0.0509,-0.0511,-0.0513,-0.0506,-0.0484,-0.0476,-0.0438,-0.0391,-0.0372,-0.0332,-0.0293,-0.0192,-0.0177,-0.0126,-0.0085,-0.0032,0.0001,-0.0035,-0.0032,-0.0036,0.0067,0.0048,0.0055,0.0007,0.0009,0.0011,0.0042,0,-0.0513,-0.0517,-0.0509,-0.0495,-0.0487,-0.0457,-0.0428,-0.0385,-0.0354,-0.0322,-0.0241,-0.0203,-0.0155,-0.0144,-0.0076,-0.0029,0.0027,-0.001,0.0064,0.0066,0.0041,0.0067,0.0018,0.0048,0.005,0.0052,0.0053,0,-0.0523,-0.052,-0.0515,-0.0491,-0.0486,-0.0477,-0.0429,-0.0403,-0.0341,-0.0322,-0.0255,-0.0222,-0.0128,-0.0115,0.0014,-0.0024,0.0033,0.0073,0.0075,0.0091,0.0066,0.0043,0.0068,0.0067,0.0066,0.0065,0.0064,0,-0.0532,-0.0521,-0.0516,-0.0509,-0.0484,-0.0471,-0.0455,-0.0403,-0.0395,-0.0335,-0.0342,-0.0223,-0.02,-0.0095,-0.0003,-0.0006,0.011,0.0117,0.0165,0.0162,0.0187,0.0183,0.023,0.023,0.023,0.023,0.023,0,-0.0533,-0.0532,-0.0529,-0.0529,-0.0531,-0.0498,-0.0503,-0.0468,-0.0444,-0.0437,-0.0356,-0.0332,-0.0197,-0.012,-0.0019,0.0089,0.0105,0.0183,0.0184,0.016,0.0153,0.019,0.0185,0.0231,0.0231,0.0231,0.023,0,-0.055,-0.0547,-0.0551,-0.0539,-0.0545,-0.0551,-0.0569,-0.0579,-0.0541,-0.0536,-0.0529,-0.0428,-0.0317,-0.0186,-0.0032,0.0049,0.0163,0.0206,0.0145,0.0139,0.0182,0.0174,0.0256,0.0256,0.0256,0.0256,0.0256,0,-0.0558,-0.0565,-0.0585,-0.0612,-0.0618,-0.0636,-0.0664,-0.0638,-0.0645,-0.0584,-0.0584,-0.0485,-0.0399,-0.0199,-0.0055,0.0128,0.017,0.0207,0.0242,0.02,0.0193,0.0185,0.0177,0.0256,0.0256,0.0256,0.0256,0,-0.0577,-0.0599,-0.0611,-0.067,-0.0711,-0.0746,-0.0769,-0.0777,-0.0734,-0.072,-0.0617,-0.0494,-0.0369,-0.0194,-0.006,0.0082,0.0168,0.0208,0.021,0.0243,0.02,0.0192,0.0184,0.0256,0.0256,0.0256,0.0256,0,-0.0608,-0.0634,-0.0673,-0.0717,-0.0782,-0.0818,-0.0823,-0.0805,-0.0795,-0.0704,-0.0671,-0.0508,-0.0412,-0.0218,-0.0089,0.0037,0.0082,0.0122,0.0129,0.0131,0.0094,0.0022,0.0039,0,0,0,0,0,-0.063,-0.0668,-0.072,-0.0766,-0.0833,-0.0857,-0.088,-0.087,-0.0828,-0.0761,-0.0704,-0.0569,-0.0349,-0.0253,-0.0127,-0.0099,0.0084,0.005,0.0129,0.0255,0.0255,0.0234,0,0,0,0,0,0,-0.065,-0.0707,-0.0722,-0.0799,-0.0838,-0.09,-0.0906,-0.0874,-0.0815,-0.0752,-0.0631,-0.0555,-0.0344,-0.0421,-0.0129,-0.0092,-0.0028,0.0155,0.0157,0.0255,0.0255,0.0255,0.0234,0,0,0,0,0]}]]